Retour au catalogue

STARLINK-36415

ActifCommunicationsVLEO
NORAD 67519·PAYLOAD·🇺🇸 United States

Lancé Jan 18, 2026 depuis Cape Canaveral Space Force Station

Loading…

Prochains Passages (prochaines 24 heures)

TLE

FraisSource: CelesTrak SupGP

Époque: Sep 15, 2026, 03:26 UTC

1 67519C 26012AC  26258.14354167  .00039812  00000+0  14417-2 0  2582
2 67519  43.0025 324.1080 0001501 267.7835 331.9947 15.27566651    18

Suivez STARLINK-36415 en temps réel avec AllMySat

Download on the App Store